Home > Weather > Encarnación > Past weeks

Flag for Paraguay Weather for the Past 2 Weeks in Encarnación, Paraguay

Now
52 °F

Clear.


Feels Like: 50 °F
Forecast: 44 / 63 °F
Wind: 6 mph from South

Location: Posadas Aero.

Current Time: Apr 30, 2016 at 1:36:42 AM

Latest Report: Apr 30, 2016 at 12:00 AM


Visibility: 10 mi

Pressure: 30.24 "Hg

Humidity: 77%

Dew Point: 45 °F

Location of EncarnaciónLocation

Historic Weather in Encarnación — Graph

°F

Encarnación Temperature Yesterday

Maximum temperature yesterday: 63 °F (at 1:00 PM)
Minimum temperature yesterday: 46 °F (at 4:00 AM)
Average temperature yesterday: 54 °F

High & Low Weather Summary for the Past Weeks

 TemperatureHumidityPressure
High95 °F (Apr 17, 1:00 PM)100% (Apr 21, 8:00 AM)30.33 "Hg (Apr 21, 8:00 AM)
Low45 °F (Apr 28, 6:00 AM)36% (Apr 27, 2:00 PM)29.56 "Hg (Apr 25, 1:00 AM)
Average73 °F75%29.93 "Hg
* Reported Midnight between Apr 14 and Apr 15 — Midnight between Apr 29 and Apr 30, Encarnación, Weather by CustomWeather, © 2016

Note: Actual official high and low records may vary slightly from our data, if they occured in-between our weather recording intervals... More about our weather records

Advertising

Encarnación Weather History for the Previous 24 Hours

Scroll right to see more
 ConditionsComfort  
Time TempWeatherWind HumidityBarometerVisibility
12:00 AM
Sat, Apr 30
52 °FClear.6 mph77%30.24 "Hg10 mi
11:00 PM
Fri, Apr 29
52 °FClear.6 mph77%30.27 "Hg10 mi
10:00 PM52 °FClear.7 mph77%30.24 "Hg10 mi
9:00 PM52 °FClear.7 mph77%30.27 "Hg10 mi
8:00 PM52 °FClear.7 mph77%30.24 "Hg10 mi
7:00 PM54 °FClear.7 mph72%30.21 "Hg10 mi
6:00 PM57 °FClear.9 mph55%30.21 "Hg10 mi
5:00 PM59 °FClear.8 mph55%30.21 "Hg10 mi
4:00 PM61 °FSunny.9 mph52%30.18 "Hg10 mi
3:00 PM63 °FSunny.10 mph45%30.18 "Hg10 mi
2:00 PM63 °FSunny.9 mph45%30.18 "Hg10 mi
1:00 PM63 °FSunny.8 mph49%30.21 "Hg10 mi
12:00 PM61 °FSunny.8 mph48%30.21 "Hg10 mi
11:00 AM59 °FSunny.7 mph51%30.24 "Hg10 mi
10:00 AM59 °FSunny.10 mph48%30.24 "Hg10 mi
9:00 AM54 °FSunny.9 mph63%30.24 "Hg10 mi
8:00 AM52 °FSunny.7 mph67%30.24 "Hg10 mi
7:00 AM46 °FSunny.5 mph76%30.24 "Hg10 mi
6:00 AM46 °FSunny.6 mph76%30.24 "Hg10 mi
5:00 AM46 °FClear.6 mph76%30.21 "Hg10 mi
4:00 AM46 °FClear.7 mph82%30.21 "Hg10 mi
3:00 AM48 °FClear.2 mph76%30.18 "Hg10 mi
2:00 AM50 °FClear.6 mph67%30.21 "Hg10 mi
1:00 AM50 °FClear.6 mph67%30.21 "Hg10 mi
Weather by CustomWeather, © 2016

See weather overviewHow to use our weather pages